Location: Ferques
(50.8300°N, 1.7599°E)
Time: 18:26:10
(UTC+00:00)

Daily predictions for brighter satellites

Satellite Brightness Start Highest point End
(mag) Time Altitude Azimuth Time Altitude Azimuth Time Altitude Azimuth
MOS 1 4.4 20:12:53 10° SSE 20:18:35 85° WSW 20:24:20 10° NNW
Lacrosse 4 Rocket 2.9 20:17:19 10° WSW 20:21:03 41° NW 20:24:53 10° NNE
CZ-4B R/B 3.5 20:18:11 10° S 20:22:10 56° W 20:26:03 10° NNW
ARIANE 6 FM1 Upper Stage 3.1 20:19:22 10° SSW 20:23:05 37° SE 20:26:50 10° ENE
Spot 2 Rocket 3.9 20:18:38 10° SE 20:23:28 51° ENE 20:28:22 10° N
NOSS 3-1 (C) 4.0 20:19:42 10° SSE 20:23:30 24° ESE 20:27:50 10° ENE
Cosmos 1782 3.1 20:22:28 10° SSW 20:26:06 65° WNW 20:29:47 10° N
Meteor 1-5 Rocket 4.5 20:22:16 10° N 20:28:15 69° ENE 20:34:11 10° SSE
Cosmos 1726 Rocket 3.7 20:24:04 10° SSW 20:28:30 81° WNW 20:32:55 10° N
MetOp-B 4.4 20:24:09 10° S 20:29:30 75° WSW 20:34:53 10° NNW
Cosmos 1833 Rocket 3.2 20:24:36 10° S 20:29:47 39° ESE 20:34:59 10° NE
CZ-4 R/B 3.8 20:26:50 10° SW 20:29:51 21° W 20:32:52 10° NW
IRS-1A Rocket 4.4 20:24:54 10° SSE 20:30:47 81° ENE 20:36:37 10° NNW
Cosmos 1733 3.6 20:30:29 10° N 20:33:20 32° ENE 20:36:07 10° SE
Cosmos 1076 Rocket 3.7 20:29:59 10° NNW 20:34:20 75° W 20:38:38 10° S
USA 186 4.3 20:37:09 10° SW 20:38:42 14° W 20:40:18 10° WNW
Cosmos 158 Rocket 4.2 20:33:35 10° S 20:38:43 53° ESE 20:43:56 10° NNE
USA 245 3.9 20:35:38 10° SSE 20:39:48 65° ENE 20:44:59 10° N
Cosmos 2058 Rocket 3.1 20:39:30 10° S 20:43:57 77° E 20:48:26 10° NNE
Geosat 4.5 20:41:40 10° NNE 20:46:39 67° NW 20:51:36 10° SW
Helios 1A 3.0 20:43:45 10° NNE 20:47:49 82° WNW 20:51:50 10° SSW
Cosmos 1980 Rocket 2.8 20:46:58 10° NNW 20:52:21 45° NE 20:57:27 11° ESE
PSLV R/B 3.7 20:49:41 13° SE 20:52:24 47° ENE 20:55:33 10° N
NOSS 3-1 (A) 4.4 20:50:27 11° SSE 20:53:20 18° ESE 20:56:53 10° ENE
Helios 1B rocket 4.4 20:51:27 10° SSW 20:54:23 22° W 20:57:20 10° NW
ATLAS CENTAUR R/B 1.0 20:51:18 10° SSW 20:54:57 66° SE 20:58:46 10° NE
Terra 2.2 20:51:02 10° S 20:55:42 63° WSW 21:00:23 10° NNW
NOSS 7 (H) 4.0 20:54:12 10° NW 20:57:06 81° NE 20:59:36 15° SE
USA 234 3.3 20:51:10 10° ENE 20:57:36 58° SE 21:04:02 10° SW
Cosmos 1315 Rocket 4.1 20:55:12 13° SE 20:57:40 23° E 21:00:46 10° NE
Meteor 1-26 Rocket 4.5 20:54:57 10° S 21:00:40 58° E 21:06:34 10° NNE
SAR-Lupe-2 3.8 20:57:56 10° S 21:01:28 65° WSW 21:05:02 10° NNW
SL-16 R/B 4.1 20:58:40 10° NNW 21:02:53 21° NE 21:07:06 10° E
Meteor 2-2 Rocket 4.4 20:59:33 10° S 21:05:26 73° E 21:11:27 10° NNE
BlueWalker 3 1.9 21:03:56 10° WNW 21:07:32 59° SSW 21:10:12 17° SE
Cosmos 1125 Rocket 3.7 21:03:58 10° NNW 21:09:16 72° WSW 21:14:02 13° SSE
Meteor 2-10 4.4 21:03:44 10° N 21:09:24 59° ENE 21:13:58 15° SSE
Cosmos 1346 Rocket 3.1 21:07:21 10° NNW 21:11:00 56° W 21:14:32 11° S
Cosmos 1400 Rocket 3.9 21:07:58 10° SW 21:11:27 41° WNW 21:14:58 10° N
Cosmos 2322 Rocket 4.4 21:07:52 10° N 21:11:34 17° NNE 21:15:14 10° ENE
Cosmos 2366 rocket 4.1 21:09:09 10° N 21:15:33 76° E 21:21:09 14° SSE
SL-24 DEB 4.4 21:14:17 16° SSE 21:17:50 58° E 21:22:19 10° N
IRS-1C Rocket 4.3 21:15:27 11° S 21:20:31 68° WSW 21:25:48 10° NNW
Ariane Rocket 3.0 21:16:59 14° SSE 21:21:24 86° WSW 21:26:31 10° NNW
Cosmos 44 3.5 21:17:15 10° NW 21:21:43 57° SW 21:25:13 17° SSE
Cosmos 2298 Rocket 4.1 21:18:37 10° NNW 21:23:58 71° ENE 21:27:57 18° SE
CZ-4C R/B 4.3 21:17:44 10° WNW 21:24:01 32° WSW 21:31:18 10° S
SL-8 Rocket 4.0 21:17:57 10° N 21:24:09 87° W 21:29:42 13° S
Cosmos 1238 Rocket 3.1 21:22:12 19° SSE 21:24:21 39° E 21:27:28 10° NNE
Cosmos 1697 Rocket 3.0 21:19:03 10° NW 21:24:38 61° WSW 21:29:17 15° S
Lacrosse 5 rocket 2.0 21:21:32 10° WNW 21:24:45 33° SW 21:26:34 19° S
Cosmos 1570 Rocket 4.0 21:21:38 10° SSW 21:26:51 75° ESE 21:32:09 10° NNE
CENTAUR R/B 4.3 21:23:33 10° NW 21:30:29 39° NNE 21:38:38 10° E
Cosmos 2360 Rocket 4.3 21:27:30 10° N 21:31:25 19° NNE 21:35:20 10° ENE
ATLAS 3B R/B 4.2 21:30:07 15° SE 21:32:54 19° ESE 21:37:53 10° ENE
Cosmos-2242 3.8 21:29:12 10° SSW 21:33:21 51° WNW 21:37:32 10° N
Cosmos 836 Rocket 4.5 21:28:26 10° S 21:33:34 67° ESE 21:38:44 10° NNE
Meteor 2-6 Rocket 4.4 21:30:19 14° S 21:35:15 59° E 21:40:52 10° NNE
Cosmos 1536 3.1 21:31:46 10° N 21:35:30 48° ENE 21:37:32 23° SE
Cosmos 2369 4.0 21:31:44 10° NNW 21:37:23 60° NE 21:41:29 19° SE
Cosmos 1867 4.0 21:32:17 10° NW 21:37:37 54° WSW 21:41:23 19° SSE
SeaSat 1 2.4 21:36:40 20° SE 21:40:07 83° ENE 21:45:03 10° NNW
Cosmos 405 Rocket 4.2 21:37:29 10° NNE 21:40:10 21° ENE 21:41:40 16° ESE
Cosmos 2221 2.5 21:37:30 20° S 21:40:13 58° E 21:44:20 10° NNE
Cosmos 2150 Rocket 4.1 21:34:50 10° NNW 21:40:16 87° WSW 21:44:04 20° SSE
Okean O Rocket 4.1 21:38:06 10° SW 21:40:43 16° W 21:43:21 10° NW
Okean 1 3.1 21:42:37 23° S 21:44:44 63° E 21:48:23 10° NNE
Cosmos 2082 Rocket 2.7 21:42:05 19° SSE 21:45:31 38° ESE 21:50:41 10° NE
Cosmos 2341 Rocket 4.4 21:39:34 10° NNW 21:45:44 62° W 21:51:18 13° S
SPOT 3 Rocket 4.2 21:43:33 13° S 21:47:54 50° W 21:52:55 10° NNW
Cosmos 1674 2.9 21:48:35 23° ENE 21:48:35 23° ENE 21:50:04 10° NE
ISS -3.4 21:51:56 10° W 21:55:12 48° SSW 21:56:12 34° SSE
Cosmos 773 Rocket 3.9 21:51:32 13° SSW 21:56:11 75° ESE 22:01:19 10° NNE
COBE Rocket 4.3 21:53:05 10° NNE 21:58:03 49° E 22:00:56 24° SSE
Cosmos 2084 Rocket 3.3 21:55:29 10° SW 21:59:45 86° SE 22:04:00 10° NE
Cosmos 220 Rocket 3.8 21:57:21 22° S 21:59:51 65° ESE 22:03:54 10° NNE
Cosmos 1766 Rocket 3.7 21:55:34 10° N 21:59:57 64° ENE 22:02:12 27° SSE
COSMOS 2406 4.0 21:59:10 23° SSE 22:01:41 33° ESE 22:06:44 10° NE
ARIANE 6 FM1 Upper Stage 4.0 21:58:23 10° WSW 22:02:12 41° NNW 22:06:05 10° NE
Cosmos 1356 Rocket 4.3 22:04:11 10° SSW 22:08:09 46° WNW 22:12:08 10° N
USA 59 Rocket 1.0 22:10:24 18° E 22:10:24 18° E 22:11:42 10° ENE
Cosmos 2333 Rocket 3.6 22:05:50 10° NNW 22:10:59 33° NE 22:15:54 11° ESE
NOSS 3-1 (C) 3.4 22:08:36 10° SW 22:13:29 69° NW 22:19:34 10° NE
MetOp-A 4.4 22:10:43 24° SE 22:13:37 56° ENE 22:18:41 10° N
Cosmos 1833 Rocket 3.8 22:08:16 10° WSW 22:13:39 45° NW 22:19:05 10° NNE
NOSS 2-1 (E) 4.4 22:21:20 21° E 22:21:20 21° E 22:22:57 10° ENE
Meteor 2-9 Rocket 4.2 22:15:05 10° NNW 22:20:44 87° W 22:24:06 26° S
Cosmos 1821 Rocket 4.3 22:14:53 10° NNW 22:20:55 61° W 22:25:07 20° SSW
PKM 3.4 22:18:51 10° WSW 22:21:37 89° SE 22:25:49 10° ENE
ALOS 2 3.9 22:19:44 20° ESE 22:21:59 31° ENE 22:25:52 10° N
Cosmos 1805 3.6 22:19:43 10° NNW 22:23:04 46° W 22:24:25 29° SSW
Cosmos 2219 Rocket 4.1 22:22:07 10° NNW 22:26:39 24° NE 22:31:07 10° E
Meteor 1-19 Rocket 4.4 22:25:47 24° S 22:29:32 75° E 22:35:34 10° NNE
ATLAS CENTAUR R/B 3.7 22:28:19 10° W 22:31:26 24° NNW 22:34:38 10° NNE
Cosmos 1315 Rocket 4.2 22:30:06 12° SW 22:33:17 34° WNW 22:36:53 10° N
Meteor 1-27 Rocket 3.8 22:30:55 28° SSE 22:33:45 60° E 22:39:13 10° NNE
NOSS 2-1 (D) 3.4 22:36:14 38° ESE 22:36:14 38° ESE 22:38:40 10° ENE
Cosmos 1980 Rocket 3.1 22:31:09 10° NW 22:36:16 37° WSW 22:39:12 22° SSW
Sich 1 3.7 22:32:45 10° N 22:36:49 43° ENE 22:38:23 30° ESE
Helios 1B 4.5 22:33:48 10° NNE 22:38:07 86° WNW 22:40:12 30° SSW
Genesis I 2.6 22:37:25 10° NW 22:40:08 56° NE 22:40:24 52° ENE
USA 234 3.6 22:34:15 10° ENE 22:40:45 69° NNW 22:47:14 10° WSW
NOSS 3-1 (A) 3.1 22:38:09 10° SW 22:43:03 85° NW 22:49:05 10° NE
Meteor 2-15 4.4 22:37:50 10° N 22:43:59 79° ENE 22:47:14 29° SSE
BlueWalker 3 4.0 22:42:41 10° W 22:44:08 14° SW 22:44:08 14° SW
SL-16 R/B 2.3 22:42:16 10° NNW 22:47:58 75° ENE 22:51:04 28° SE
Cosmos 1975 2.5 22:45:36 10° N 22:49:18 90° S 22:50:13 49° S
Meteor 1-11 Rocket 4.0 22:45:06 10° NNW 22:50:30 56° W 22:53:25 27° SSW
Cosmos 1707 3.2 22:51:13 34° E 22:51:25 34° E 22:54:30 10° NNE
Cosmos 1500 Rocket 4.0 22:47:41 10° N 22:51:58 52° ENE 22:53:33 34° SE
Cosmos 1538 Rocket 4.3 22:50:41 33° SSE 22:52:32 48° ESE 22:57:29 10° NNE
CZ-4C R/B 3.5 22:49:00 10° N 22:52:36 56° WNW 22:54:01 32° SW
NOSS 2-1 (C) 2.6 22:55:39 63° SE 22:55:40 63° SE 22:58:40 10° NE
Cosmos 2322 Rocket 2.6 22:51:17 10° NNW 22:56:54 57° NE 23:00:25 22° SE
Cosmos 2237 4.3 22:51:47 10° NNW 22:57:28 70° WSW 23:00:06 32° S
Spot 4 3.8 22:56:44 36° SSE 22:58:42 85° ENE 23:03:30 10° NNW
Meteor 2-15 Rocket 4.4 22:54:43 10° N 23:00:53 78° ENE 23:04:01 31° SSE
Cosmos 1408 Rocket 3.5 22:56:32 10° N 23:00:54 76° ENE 23:02:20 41° SSE
ARIANE 5 R/B 2.7 23:01:14 38° SSW 23:02:45 63° WSW 23:07:06 10° NNW
Cosmos 1842 Rocket 3.7 23:02:48 34° SSW 23:04:36 69° WNW 23:08:54 10° N
Cosmos 1766 3.1 23:01:17 10° NNW 23:04:42 60° W 23:05:17 50° SW
Cosmos 1908 2.6 23:02:49 10° N 23:06:06 88° ENE 23:06:26 70° SSE
Cosmos 1470 2.6 23:03:06 10° N 23:06:39 64° ENE 23:07:19 51° SE
Cosmos 1805 Rocket 3.6 23:03:39 10° N 23:08:05 71° ENE 23:09:35 40° SSE
Cosmos 2278 3.7 23:08:29 10° NNW 23:14:08 74° WSW 23:16:39 34° SSE
Cosmos 405 Rocket 3.7 23:11:21 10° NNW 23:14:23 29° W 23:14:58 27° WSW
GP-B 3.9 23:11:01 10° NNE 23:15:10 39° E 23:16:31 31° SE
Exosat Rocket 3.4 23:11:01 10° NNW 23:16:09 88° ENE 23:18:24 34° SSE
Cosmos 2360 Rocket 2.4 23:10:54 10° NNW 23:16:31 66° ENE 23:19:47 25° SE
Cosmos 1934 Rocket 4.3 23:10:35 10° NNW 23:16:42 59° W 23:20:02 28° SSW
SeaSat 1 4.3 23:16:18 15° SW 23:18:03 18° WSW 23:21:23 10° WNW
CZ-2C R/B 4.0 23:15:22 10° N 23:19:42 59° WNW 23:21:45 29° SW
Meteor 2-8 Rocket 4.4 23:15:33 10° N 23:21:46 86° E 23:24:49 32° SSE
ATLAS 3B R/B 2.9 23:17:16 22° SSW 23:22:21 71° SE 23:30:10 10° NE
CENTAUR R/B 3.4 23:14:20 10° NW 23:22:22 77° NE 23:31:24 11° SE
KORONAS-FOTON 3.5 23:22:30 57° SW 23:23:05 74° W 23:26:36 10° N
USA 229 DEB 3.7 23:20:46 32° S 23:23:17 51° ESE 23:29:44 10° NE
USA 229 3.7 23:20:54 32° S 23:23:23 50° ESE 23:29:49 10° NE
Spot 1 4.1 23:19:58 10° NNE 23:24:15 66° ESE 23:25:34 43° SSE
ASTEX 1 4.0 23:19:33 10° NNE 23:24:17 44° E 23:26:06 31° SE
Cosmos 1743 Rocket 3.5 23:21:53 10° N 23:26:22 80° E 23:27:46 43° SSE
Cosmos 2082 Rocket 3.1 23:24:10 10° SW 23:29:32 45° NW 23:34:57 10° NNE
Cosmos 1605 Rocket 4.1 23:25:53 10° NNW 23:32:13 74° W 23:35:18 32° S
Landsat 5 4.0 23:30:18 10° N 23:34:22 54° WNW 23:36:07 31° SW
Cosmos 1842 3.0 23:36:29 55° SW 23:37:01 65° WNW 23:40:29 10° N
Cosmos 1420 Rocket 4.0 23:35:44 10° NNW 23:41:05 86° ENE 23:43:26 34° SSE
USA-17 4.3 23:40:38 10° NW 23:43:43 74° NE 23:44:07 61° ESE
COSMOS 2406 3.9 23:41:09 15° SW 23:45:46 51° NW 23:51:22 10° NNE
Cosmos 1455 3.3 23:44:27 10° NNE 23:46:47 23° ENE 23:47:02 22° E
Cosmos 1300 2.0 23:47:10 10° N 23:50:21 86° E 23:50:26 83° SE
